[[{"header":{"parameterUnit":"m.s-1","parameterCategory":1,"la1":30.2992,"la2":30.254,"lo1":-89.0895,"lo2":-89.0443,"dy":0.0025,"dx":0.0025,"nx":19,"ny":19,"refTime":"2026-04-17T03:00:00:Z","depth":0,"parameterNumber":2,"parameterNumberName":"U-component_of_WINDS"},"data":[0,0,0,-1.1272,-1.1271,-1.1213,-1.1213,-1.1158,-1.1158,0,0,0,0,0,0,0,0,0,0,0,-1.13,-1.13,-1.1272,-1.1271,-1.1213,-1.1213,-1.1158,-1.1158,0,0,0,0,0,0,0,0,0,0,0,-1.13,-1.13,-1.13,-1.1271,-1.1213,-1.1213,-1.1159,-1.1195,0,0,0,0,0,0,0,0,0,0,-1.1248,-1.1285,-1.13,-1.13,-1.127,-1.1213,-1.1213,-1.1197,-1.1193,-1.1193,0,-1.1195,0,-1.1176,-1.1156,-1.1155,0,0,0,-1.1262,-1.1288,-1.1262,-1.13,-1.127,-1.1214,-1.1237,-1.1194,-1.119,-1.1188,-1.1194,-1.1191,-1.1175,-1.1155,-1.1155,-1.1182,-1.1182,0,0,-1.1266,-1.1296,-1.1265,-1.126,-1.127,-1.1239,-1.1235,-1.1192,-1.12,-1.1194,-1.119,-1.1174,-1.1155,-1.1155,-1.1181,-1.1182,0,0,0,-1.128,-1.1298,-1.1273,-1.1263,-1.1251,-1.1237,-1.1233,-1.1202,-1.1192,-1.1189,-1.1173,-1.1155,-1.1154,-1.1181,-1.1182,-1.1237,0,0,0,-1.1282,-1.1307,-1.1275,-1.1293,-1.1252,-1.1226,-1.1245,-1.1195,-1.1189,-1.1174,-1.1155,-1.1154,-1.118,-1.1181,-1.1234,-1.1257,0,0,0,-1.13,-1.1309,-1.1304,-1.1295,-1.1271,-1.1226,-1.1212,-1.1193,-1.118,-1.1155,-1.1154,-1.118,-1.1181,-1.1231,-1.1253,-1.1274,0,0,0,-1.1328,-1.1353,-1.1306,-1.1328,-1.1272,-1.126,-1.1212,-1.1202,-1.1188,-1.1155,-1.118,-1.1182,-1.123,-1.125,-1.1271,-1.1297,-1.131,0,0,-1.1376,-1.136,-1.137,-1.1326,-1.1331,-1.1267,-1.128,-1.1238,-1.1208,-1.1193,-1.1193,-1.1235,-1.1253,-1.1273,-1.1374,-1.1385,0,0,0,-1.1396,-1.1404,-1.1398,-1.1387,-1.1357,-1.1333,-1.1286,-1.1272,-1.1257,-1.1206,-1.1247,-1.1257,-1.1267,-1.1278,-1.1287,-1.1295,-1.1188,-1.1188,-1.1188,-1.1505,-1.1467,-1.1483,-1.1439,-1.1428,-1.1382,-1.137,-1.1342,-1.1305,-1.1316,-1.131,-1.1377,-1.139,-1.1397,-1.1406,-1.1321,-1.1321,-1.1321,-1.1321,-1.1573,-1.1578,-1.1531,-1.153,-1.149,-1.1488,-1.1445,-1.142,-1.1413,-1.1377,-1.1384,-1.1347,-1.141,-1.1416,-1.1325,-1.1324,-1.1324,-1.1324,-1.1323,-1.164,-1.1636,-1.1619,-1.16,-1.159,-1.1544,-1.1541,-1.1504,-1.147,-1.1477,-1.1469,-1.1468,-1.1463,-1.1476,-1.1476,-1.1476,-1.1477,-1.1477,-1.1477,-1.1717,-1.1696,-1.1697,-1.1669,-1.1658,-1.1639,-1.1594,-1.1583,-1.1561,-1.1534,-1.1534,-1.1498,-1.1423,-1.1405,-1.148,-1.148,-1.1479,-1.1479,-1.1479,-1.1799,-1.1775,-1.1777,-1.1767,-1.1732,-1.1726,-1.168,-1.166,-1.1645,-1.1645,-1.1608,-1.1559,-1.1539,-1.1532,-1.1517,-1.1616,-1.1616,-1.1616,-1.1616,-1.1857,-1.1844,-1.1838,-1.1824,-1.1806,-1.1766,-1.1771,-1.1738,-1.17,-1.1689,-1.167,-1.1647,-1.1641,-1.1625,-1.1615,-1.16,-1.1719,-1.1719,-1.1719,-1.1905,-1.1889,-1.19,-1.1863,-1.1834,-1.181,-1.1814,-1.1801,-1.1753,-1.1722,-1.168,-1.1676,-1.1638,-1.1628,-1.1595,-1.1581,-1.1553,0,0]},{"header":{"parameterUnit":"m.s-1","parameterCategory":1,"la1":30.2992,"la2":30.254,"lo1":-89.0895,"lo2":-89.0443,"dy":0.0025,"dx":0.0025,"nx":19,"ny":19,"refTime":"2026-04-17T03:00:00:Z","depth":0,"parameterNumber":3,"parameterNumberName":"V-component_of_WINDS"},"data":[0,0,0,3.8725,3.8724,3.8701,3.8701,3.8661,3.8661,0,0,0,0,0,0,0,0,0,0,0,3.8726,3.8726,3.8725,3.8724,3.8701,3.8701,3.8661,3.8661,0,0,0,0,0,0,0,0,0,0,0,3.8727,3.8726,3.8725,3.8724,3.8701,3.8701,3.8662,3.8682,0,0,0,0,0,0,0,0,0,0,3.8706,3.8703,3.8726,3.8725,3.8724,3.8701,3.8701,3.8683,3.8681,3.8668,0,3.8656,0,3.8658,3.8658,3.8658,0,0,0,3.8727,3.8705,3.8704,3.8725,3.8723,3.8701,3.8712,3.8682,3.8679,3.8664,3.8656,3.8654,3.8657,3.8657,3.8657,3.8576,3.8575,0,0,3.8728,3.8719,3.8706,3.8702,3.8706,3.8713,3.8712,3.868,3.8669,3.8655,3.8654,3.8657,3.8657,3.8657,3.8576,3.8575,0,0,0,3.873,3.872,3.8719,3.8703,3.87,3.8712,3.8711,3.8671,3.8672,3.8653,3.8656,3.8657,3.8656,3.8577,3.8576,3.8541,0,0,0,3.8731,3.8721,3.872,3.8714,3.87,3.8685,3.8701,3.8674,3.8671,3.8656,3.8657,3.8656,3.8577,3.8576,3.8543,3.8525,0,0,0,3.8729,3.872,3.8716,3.8713,3.8703,3.8686,3.8685,3.8673,3.8672,3.8658,3.8656,3.8578,3.8576,3.8545,3.8529,3.8501,0,0,0,3.8725,3.8684,3.8715,3.8671,3.8704,3.8666,3.8686,3.8657,3.8641,3.8657,3.8577,3.8576,3.8546,3.8531,3.8504,3.8476,3.8464,0,0,3.8667,3.8676,3.8651,3.8679,3.8633,3.867,3.8619,3.8611,3.8617,3.8589,3.8587,3.8543,3.8529,3.8502,3.8402,3.8393,0,0,0,3.863,3.8611,3.8601,3.8586,3.8581,3.8575,3.8577,3.8575,3.8552,3.8601,3.8526,3.8518,3.8503,3.849,3.8482,3.8469,3.857,3.857,3.857,3.8533,3.8546,3.8505,3.8515,3.85,3.8504,3.8493,3.849,3.8505,3.8487,3.8478,3.8417,3.8401,3.8395,3.8382,3.8466,3.8466,3.8466,3.8465,3.845,3.8425,3.845,3.8419,3.8432,3.8405,3.8408,3.842,3.8396,3.8424,3.8411,3.8439,3.8385,3.8373,3.8463,3.8463,3.8464,3.8464,3.8464,3.8387,3.8378,3.8378,3.8359,3.8342,3.8354,3.8331,3.8344,3.8355,3.8342,3.8334,3.8335,3.8336,3.8338,3.8338,3.8338,3.8338,3.8337,3.8337,3.8321,3.8323,3.8303,3.8296,3.8289,3.8281,3.8286,3.8279,3.8274,3.8285,3.8285,3.8302,3.8378,3.8396,3.8334,3.8335,3.8335,3.8335,3.8335,3.823,3.8253,3.8222,3.8216,3.821,3.8193,3.8211,3.8196,3.8192,3.818,3.8201,3.8255,3.8264,3.8271,3.8286,3.8199,3.8199,3.8199,3.8199,3.8176,3.8183,3.8156,3.8144,3.8134,3.8148,3.8112,3.8116,3.8124,3.8122,3.8137,3.8159,3.8165,3.817,3.8179,3.8193,3.8085,3.8084,3.8084,3.812,3.8128,3.8095,3.8105,3.8102,3.8098,3.8065,3.805,3.8064,3.808,3.8121,3.8126,3.8161,3.8172,3.8187,3.82,3.8226,0,0]}]]